Regional Weather Roundup
Issued by NWS Green Bay, WI

Home | Current Version | Previous Version | Graphics & Text | Print | Product List | Glossary Off
Versions: 1 2 3 4 5 6 7 8 9 10 11 12 13 14 15 16 17 18 19 20 21 22 23 24 25 26 27 28 29 30 31 32 33 34 35 36 37 38 39 40 41 42 43 44 45 46 47 48 49 50

000
ASUS43 KGRB 011559
RWRGRB

NORTH-CENTRAL AND NORTHEAST WISCONSIN REGIONAL WEATHER ROUNDUP
NATIONAL WEATHER SERVICE GREEN BAY WI
1000 AM CST SUN MAR 01 2015

WIZ005-009-010>012-018-019-011700-
NORTH CENTRAL WISCONSIN

CITY           SKY/WX    TMP DP  RH WIND       PRES   REMARKS
IRONWOOD       CLOUDY    18  10  73 SW14      30.10S WCI   4
MANITOWISH WTR NOT AVBL
ARBOR VITAE    NOT AVBL
EAGLE RIVER    NOT AVBL
LAND O LAKES   NOT AVBL
RHINELANDER    LGT SNOW  13   7  77 SW12      30.14S WCI  -1
PHILLIPS       NOT AVBL
ANTIGO         NOT AVBL
TOMAHAWK       NOT AVBL
MERRILL        NOT AVBL
$$

WIZ013-073-011700-
NORTHEAST WISCONSIN

CITY           SKY/WX    TMP DP  RH WIND       PRES   REMARKS
IRON MOUNTAIN  MOSUNNY   17   7  64 VRB7      30.15F WCI   8
MARINETTE      MOSUNNY   18   9  68 SW12G17   30.25S WCI   5
$$

WIZ017-030-035>037-045-011700-
CENTRAL WISCONSIN

CITY           SKY/WX    TMP DP  RH WIND       PRES   REMARKS
MEDFORD        NOT AVBL
WAUSAU         LGT SNOW  13   8  81 SW8       30.21F WCI   2
MOSINEE        LGT SNOW  12   9  85 S10       30.23F WCI  -1
MARSHFIELD     CLOUDY    13   8  81 SW9       30.22F HAZE    WCI   1
WISC RAPIDS    MOSUNNY   16   8  71 SW8       30.28F WCI   5
STEVENS POINT  NOT AVBL
WAUPACA        NOT AVBL
SHAWANO        NOT AVBL
CLINTONVILLE   NOT AVBL
$$

WIZ038-039-048-051-011700-
FOX VALLEY

CITY           SKY/WX    TMP DP  RH WIND       PRES   REMARKS
NWS GREEN BAY  MOSUNNY   19  12  74 SW10      30.29F WCI   7
APPLETON       FLURRIES  16  10  79 SW10      30.29S WCI   3
OSHKOSH        CLOUDY    19  12  74 W7        30.30F WCI  10
FOND DU LAC    MOSUNNY   19  12  74 SW7       30.31F WCI  10
$$

WIZ022-050-052-011700-
EAST CENTRAL WISCONSIN

CITY           SKY/WX    TMP DP  RH WIND       PRES   REMARKS
STURGEON BAY   MOSUNNY   19   9  63 SW9       30.30R WCI   9
MANITOWOC      NOT AVBL
SHEBOYGAN      MOSUNNY   19  11  70 W8        30.31F WCI   9
$$

LMZ563-521-522-541>543-011700-
LAKESHORE

STATION/POSITION TIME  TEMP    WIND        PRES    VSBY  WAVE
                       AIR SEA DIR/SP/G                  HT/PER
                 (UTC) (F)     (DEG/KT/KT) (MB)    (MI)  (FT/S)
SHEBOYGAN LKSHOR 1500   17     230/  8/ 10 1028.9S
KEWAUNEE LKSHORE 1500   17     250/  9/ 12 1025.3F
NORTHPORT PIER   1500   16     220/  6/ 13 1025.1F
CHAMBERS ISLAND  1500   15     200/  7/ 13 1025.1F
MENOMINEE LKSHOR 1500   18     280/ 10     1025.4F
$$


USA.gov is the U.S. government's official web portal to all federal, state and local government web resources and services.